Tracking 30701 objects as of 14-Jun-2025
HD Live streaming from Space Station
objects crossing your sky now

STARLINK-31350

Track STARLINK-31350 now!
10-day predictions
STARLINK-31350 is classified as:


NORAD ID: 58933
Int'l Code: 2024-027C
Perigee: 481.0 km
Apogee: 483.7 km
Inclination: 53.2 °
Period: 94.1 minutes
Semi major axis: 6853 km
RCS: Unknown
Launch date: February 10, 2024
Source: United States (US)
Launch site: AIR FORCE WESTERN TEST RANGE (AFWTR)
Your satellite tracking list
Your tracking list is empty




NASA's NSSDC Master Catalog

Two Line Element Set (TLE):
1 58933U 24027C   25165.13341620  .00000224  00000-0  19696-4 0  9995
2 58933  53.1598 116.8637 0001965  60.2155 299.9041 15.30195195 76054
Source of the keplerian elements: AFSPC